USA 176 (DSP 22)

Last updated on Nov. 29, 2020, 6:16 a.m. UTC

1 28158U 04004A   20332.92015005 -.00000206  00000-0  00000-0 0  9993
2 28158   9.3698  38.3462 0001073 233.4269 214.1003  1.00275608 11289
UTC
Height (km)
Latitude
Longitude
Inclination
Orbital Period
UTC large
Height (km)
Speed (km/s)
/
Latitude / Longitude
Inclination (degrees)
Orbital Period (minutes)
Azimuth
Elevation
Range (km)
Doppler Factor
iOS Compass Heading
iOS Angle

Next 30 passes for location: Hong Kong

Rise time Rise Azimuth (degrees) Set time Set Azimuth (degrees) Duration Max altitude (degrees)

No matching passes for this satellites